Date,TemperatureHighF,TemperatureAvgF,TemperatureLowF,DewpointHighF,DewpointAvgF,DewpointLowF,HumidityHigh,HumidityAvg,HumidityLow,PressureMaxIn,PressureMinIn,WindSpeedMaxMPH,WindSpeedAvgMPH,GustSpeedMaxMPH,PrecipitationSumIn
2013-1-1,45.0,40.6,37.2,44.8,39.5,31.8,99,96,75,0.00,40.00,9,1,11,0.51
2013-1-2,38.1,35.8,34.5,37.0,33.0,30.6,96,90,85,0.00,40.00,7,1,9,0.51
2013-1-3,43.3,34.4,28.2,30.7,27.9,22.8,92,78,51,0.00,40.00,7,1,8,0.00
2013-1-4,40.5,30.6,22.1,28.2,24.5,20.8,97,80,53,0.00,40.00,7,1,8,0.00
2013-1-5,43.7,33.6,22.5,34.2,27.0,21.4,98,79,53,0.00,40.00,6,0,7,0.00
2013-1-6,46.8,40.6,36.1,38.1,35.7,28.6,95,83,68,0.00,40.00,11,2,13,0.00
2013-1-7,48.6,35.7,26.6,31.6,28.0,24.3,92,75,50,0.00,40.00,9,1,9,0.00
2013-1-8,52.2,36.3,24.6,38.7,31.2,23.4,98,83,57,0.00,40.00,6,0,6,0.00
2013-1-9,47.1,43.0,35.6,46.9,41.8,33.3,99,95,88,0.00,40.00,5,0,5,0.08
2013-1-10,59.5,50.7,45.5,52.7,48.7,45.1,100,93,77,0.00,40.00,4,0,4,0.00
2013-1-11,65.5,57.9,49.1,62.6,56.6,47.8,100,96,88,0.00,40.00,12,1,12,0.09
2013-1-12,68.4,63.7,61.2,65.3,62.2,57.9,100,95,84,0.00,40.00,8,1,9,0.08
2013-1-13,64.8,61.8,60.6,61.5,59.4,57.2,99,92,80,0.00,40.00,13,1,15,0.22
2013-1-14,36.0,36.0,36.0,35.4,35.4,35.4,98,98,98,0.00,40.00,2,1,3,0.22
2013-1-15,40.5,37.5,35.8,40.3,36.9,35.1,99,98,97,0.00,40.00,8,1,8,1.64
2013-1-16,44.1,40.0,37.2,43.9,39.6,37.0,100,98,95,0.00,40.00,9,1,9,0.48
2013-1-17,40.5,35.3,29.8,39.9,33.6,28.9,98,93,79,0.00,40.00,10,2,12,0.40
2013-1-18,40.3,30.9,24.3,34.3,28.7,23.5,98,92,71,0.00,40.00,4,0,5,0.13
2013-1-19,50.9,37.2,25.7,36.5,30.4,25.2,100,79,47,0.00,40.00,15,2,17,0.09
2013-1-20,55.2,42.0,32.4,37.9,31.8,25.5,90,69,35,0.00,40.00,7,1,8,0.00
2013-1-21,44.8,33.6,25.0,29.1,19.8,9.5,93,61,30,0.00,40.00,15,2,15,0.00
2013-1-22,31.6,25.5,19.8,11.3,3.0,-4.0,53,38,22,0.00,40.00,7,1,9,0.00
2013-1-23,43.3,33.0,20.8,29.1,15.9,3.6,72,50,37,0.00,40.00,11,2,12,0.00
2013-1-24,40.8,31.2,23.4,31.1,14.6,2.8,76,51,29,0.00,40.00,12,2,13,0.00
2013-1-25,32.0,28.8,23.5,31.5,24.2,8.8,98,85,48,0.00,40.00,10,1,11,0.00
2013-1-26,40.3,32.7,27.7,36.7,31.1,26.6,99,94,81,0.00,40.00,6,0,6,0.31
2013-1-27,44.1,34.5,24.1,38.7,31.4,23.2,98,89,69,0.00,40.00,6,0,6,0.31
2013-1-28,47.8,43.1,39.7,43.2,37.9,35.2,97,82,73,0.00,40.00,8,1,8,0.00
2013-1-29,60.3,57.5,56.1,56.3,55.4,54.5,96,93,87,0.00,40.00,4,0,4,0.00
2013-1-30,67.8,55.2,41.0,63.0,53.1,35.8,99,93,75,0.00,40.00,23,2,23,2.59
2013-1-31,42.6,36.5,32.5,36.3,25.6,21.4,89,65,49,0.00,40.00,21,3,21,2.59
2013-2-1,39.0,25.5,17.6,33.6,15.8,7.9,90,67,49,0.00,40.00,12,2,13,0.01
2013-2-2,33.6,26.8,21.4,30.9,23.3,16.7,93,86,68,0.00,40.00,16,2,16,0.01
2013-2-3,40.1,34.0,28.0,35.6,29.4,23.0,98,84,61,0.00,40.00,14,2,15,0.02
2013-2-4,46.0,34.4,23.2,31.3,26.5,21.4,96,75,53,0.00,40.00,12,2,13,0.02
2013-2-5,57.0,48.0,40.5,42.3,36.7,30.4,85,65,52,0.00,40.00,13,2,14,0.00
2013-2-6,58.5,44.2,30.7,38.3,34.2,29.5,98,71,40,0.00,40.00,8,0,8,0.00
2013-2-7,55.0,44.7,36.9,44.6,37.7,33.3,97,79,47,0.00,40.00,4,0,5,0.02
2013-2-8,52.2,43.0,36.0,46.9,38.8,29.7,99,86,63,0.00,40.00,13,2,15,0.06
2013-2-9,52.0,38.2,25.9,31.6,28.2,24.1,94,69,38,0.00,40.00,8,1,8,0.00
2013-2-10,58.8,44.2,34.7,45.5,36.2,28.8,99,77,33,0.00,40.00,11,0,14,0.17
2013-2-11,56.1,49.9,41.2,52.7,44.1,32.2,100,83,44,0.00,40.00,9,2,13,0.06
2013-2-12,52.7,43.5,33.8,39.7,33.1,28.2,92,69,41,0.00,40.00,8,0,9,0.01
2013-2-13,44.8,40.5,36.3,44.2,38.5,34.0,99,93,80,0.00,40.00,9,1,11,0.28
2013-2-14,53.1,41.1,30.0,38.3,35.1,29.3,99,81,55,0.00,40.00,12,1,13,0.01
2013-2-15,50.4,38.0,28.8,40.6,33.9,27.7,99,86,67,0.00,40.00,9,1,9,0.02
2013-2-16,36.3,30.4,26.1,30.2,21.2,11.1,92,69,46,0.00,40.00,12,2,13,0.00
2013-2-17,40.8,29.0,17.8,19.2,14.3,10.4,85,57,29,0.00,40.00,10,1,12,0.00
2013-2-18,57.0,39.5,22.1,31.6,24.7,16.9,89,59,36,0.00,40.00,16,2,18,0.00
2013-2-19,52.3,42.7,34.2,41.9,29.8,15.6,98,65,29,0.00,40.00,23,3,24,0.18
2013-2-20,39.2,31.8,24.8,21.2,16.4,11.3,84,54,32,0.00,40.00,9,1,9,0.02
2013-2-21,49.3,36.1,22.8,37.9,23.6,17.2,97,65,30,0.00,40.00,8,1,9,0.06
2013-2-22,52.5,45.5,37.8,47.8,43.2,36.9,99,92,83,0.00,40.00,12,1,12,0.07
2013-2-23,57.9,49.5,44.1,49.3,45.6,35.6,99,87,70,0.00,40.00,8,1,9,0.01
2013-2-24,52.9,41.1,29.7,35.6,27.6,24.1,89,61,35,0.00,40.00,11,1,11,0.02
2013-2-25,56.8,41.7,28.4,37.2,30.3,25.3,91,67,40,0.00,40.00,7,1,8,0.09
2013-2-26,55.0,46.9,41.2,51.3,42.7,36.7,96,86,63,0.00,40.00,19,2,22,0.01
2013-2-27,43.3,40.6,36.7,37.8,34.8,31.6,89,80,69,0.00,40.00,12,3,15,0.00
2013-2-28,38.1,36.0,34.0,33.8,29.1,25.7,91,76,61,0.00,40.00,8,1,10,0.00
2013-3-1,42.4,36.8,33.8,33.6,32.0,30.2,95,83,65,0.00,40.00,5,1,9,0.01
2013-3-2,37.2,33.2,28.8,32.7,28.4,21.9,96,83,70,0.00,40.00,12,2,12,0.00
2013-3-3,32.9,29.0,23.5,23.7,20.2,17.4,84,70,58,0.00,40.00,7,1,8,0.15
2013-3-4,32.7,21.5,18.1,24.1,18.8,16.5,96,89,66,0.00,40.00,6,0,6,0.00
2013-3-5,35.4,34.5,33.1,32.0,31.3,28.4,92,88,83,0.00,40.00,9,1,11,1.51
2013-3-6,33.6,32.1,30.7,30.6,27.9,23.5,94,85,73,0.00,40.00,13,2,14,1.51
2013-3-7,34.7,33.0,31.6,30.6,28.3,26.6,94,83,78,0.00,40.00,7,1,9,0.01
2013-3-8,50.7,38.3,28.2,31.5,27.9,24.8,88,68,42,0.00,40.00,9,1,9,0.00
2013-3-9,63.1,44.8,27.7,36.0,31.5,26.2,96,65,32,0.00,40.00,10,1,11,0.00
2013-3-10,70.0,55.2,41.2,40.8,36.2,32.4,83,52,28,0.00,40.00,11,1,14,0.00
2013-3-11,62.8,55.2,45.0,54.0,47.1,33.8,98,76,43,0.00,40.00,17,2,20,0.53
2013-3-12,53.4,43.2,37.2,40.6,33.7,30.2,86,70,46,0.00,40.00,10,2,11,0.00
2013-3-13,43.2,37.4,32.2,32.2,25.0,18.1,87,62,46,0.00,40.00,13,2,16,0.00
2013-3-14,45.7,35.6,24.3,28.6,20.8,17.4,83,56,36,0.00,40.00,8,1,10,0.00
2013-3-15,65.8,48.0,30.7,46.8,36.0,25.5,94,65,43,0.00,40.00,16,2,16,0.00
2013-3-16,75.6,65.2,56.7,52.2,48.3,44.4,73,55,41,0.00,40.00,18,4,19,0.00
2013-3-17,70.3,58.5,48.2,53.4,49.9,45.1,92,74,52,0.00,40.00,9,1,10,0.00
2013-3-18,61.0,52.9,46.0,56.1,50.9,43.7,99,93,82,0.00,40.00,12,1,14,1.18
2013-3-19,56.8,47.4,35.1,51.4,29.4,11.3,99,56,20,0.00,40.00,13,2,18,0.00
2013-3-20,54.1,41.5,28.8,33.1,20.8,11.7,79,47,23,0.00,40.00,14,2,18,0.00
2013-3-21,38.8,30.7,22.6,19.4,13.8,9.9,70,50,35,0.00,40.00,10,2,11,0.00
2013-3-22,44.2,33.8,21.4,29.8,20.8,14.9,88,61,32,0.00,40.00,7,0,7,0.00
2013-3-23,51.3,42.8,38.3,42.6,36.9,28.6,90,80,65,0.00,40.00,5,0,6,0.00
2013-3-24,51.4,45.8,41.7,50.9,44.4,33.4,99,95,73,0.00,40.00,14,1,16,0.83
2013-3-25,41.7,34.5,30.7,34.9,29.7,25.9,96,83,67,0.00,40.00,15,3,17,0.83
2013-3-26,40.5,34.4,30.7,31.1,29.4,27.5,96,83,63,0.00,40.00,11,1,11,0.04
2013-3-27,46.9,37.9,29.5,30.2,27.0,23.0,89,66,43,0.00,40.00,9,1,9,0.04
2013-3-28,54.9,39.1,24.6,32.7,24.6,17.8,97,63,24,0.00,40.00,12,1,13,0.00
2013-3-29,48.0,38.5,28.8,41.4,33.8,23.9,98,84,60,0.00,40.00,11,0,11,0.08
2013-3-30,57.7,47.5,40.6,47.8,43.2,39.9,100,86,64,0.00,40.00,7,0,8,0.10
2013-3-31,58.6,52.9,48.7,54.9,51.3,46.8,99,95,87,0.00,40.00,14,1,14,0.42
2013-4-1,61.5,49.3,37.4,50.5,41.0,33.4,100,77,43,0.00,40.00,11,1,15,0.42
2013-4-2,54.7,44.8,31.8,33.6,23.6,18.1,82,45,25,0.00,40.00,8,1,10,0.00
2013-4-3,55.9,44.7,28.6,27.5,23.0,18.7,87,46,26,0.00,40.00,10,1,11,0.00
2013-4-4,48.4,42.9,39.2,41.0,33.2,19.6,96,73,33,0.00,40.00,8,1,10,0.64
2013-4-5,63.9,49.7,39.9,43.5,38.5,32.0,99,71,34,0.00,40.00,12,1,12,0.00
2013-4-6,70.0,53.1,34.3,43.2,38.6,33.1,100,64,31,0.00,40.00,12,1,14,0.00
2013-4-7,72.5,60.5,48.2,49.1,43.3,37.9,74,54,36,0.00,40.00,16,2,17,0.00
2013-4-8,74.5,62.4,48.4,56.8,50.5,44.2,88,67,50,0.00,40.00,16,2,18,0.00
2013-4-9,79.2,65.8,49.8,59.5,54.7,47.8,94,69,48,0.00,40.00,13,1,13,0.00
2013-4-10,83.3,70.3,54.9,61.3,56.8,51.8,92,65,40,0.00,40.00,14,2,14,0.00
2013-4-11,80.6,70.3,58.1,63.9,58.3,56.3,98,68,48,0.00,40.00,14,2,16,0.89
2013-4-12,64.2,57.0,48.0,60.3,47.3,37.0,98,73,37,0.00,40.00,13,2,14,0.90
2013-4-13,70.2,54.5,39.4,45.0,40.0,34.5,97,64,28,0.00,40.00,8,1,11,0.00
2013-4-14,70.2,55.0,40.6,53.4,45.6,38.8,97,74,40,0.00,40.00,8,0,10,0.02
2013-4-15,75.0,62.9,53.8,59.5,55.4,52.9,100,79,51,0.00,40.00,9,1,9,0.01
2013-4-16,80.4,68.5,55.0,66.4,60.2,53.6,97,76,58,0.00,40.00,11,1,12,0.00
2013-4-17,72.9,64.1,58.5,65.3,61.8,57.9,100,93,75,0.00,40.00,11,0,14,0.37
2013-4-18,80.2,67.9,56.1,65.5,58.6,55.0,100,76,44,0.00,40.00,15,1,16,0.00
2013-4-19,72.7,58.1,45.9,64.0,50.5,32.7,98,77,59,0.00,40.00,15,2,16,0.90
2013-4-20,60.3,46.8,31.8,38.7,32.6,27.3,97,62,30,0.00,40.00,8,1,9,0.00
2013-4-21,65.3,50.9,36.0,43.2,37.5,33.8,95,64,35,0.00,40.00,7,0,7,0.00
2013-4-22,68.7,54.5,39.9,46.9,42.4,38.7,97,67,37,0.00,40.00,7,0,7,0.00
2013-4-23,70.0,56.4,42.3,52.0,46.4,41.2,99,72,46,0.00,40.00,8,1,9,0.00
2013-4-24,68.4,56.2,45.9,61.9,51.3,39.9,97,84,67,0.00,40.00,16,2,16,0.11
2013-4-25,63.7,51.2,40.3,43.5,39.8,32.2,97,68,31,0.00,40.00,8,1,8,0.00
2013-4-26,65.7,51.4,37.6,50.7,41.9,36.5,98,74,36,0.00,40.00,5,0,6,0.03
2013-4-27,54.1,51.7,49.8,53.8,51.0,49.3,99,98,94,0.00,40.00,5,0,5,0.50
2013-4-28,57.9,54.8,50.7,57.7,54.7,50.4,100,99,98,0.00,40.00,5,0,6,0.95
2013-4-29,67.3,59.5,53.4,61.3,57.2,52.9,99,92,75,0.00,40.00,5,0,5,0.95
2013-4-30,77.0,61.6,47.7,61.0,53.7,47.5,100,79,41,0.00,40.00,6,0,6,0.00
2013-5-1,76.3,64.1,52.7,62.2,56.6,52.2,100,79,53,0.00,40.00,6,0,6,0.00
2013-5-2,74.5,63.9,52.2,61.7,56.6,50.9,98,78,58,0.00,40.00,6,0,6,0.00
2013-5-3,72.9,63.1,52.9,59.5,54.2,50.2,97,74,52,0.00,40.00,7,0,8,0.00
2013-5-4,62.1,57.1,52.9,55.8,50.4,38.3,98,80,51,0.00,40.00,7,0,7,0.92
2013-5-5,56.7,53.2,50.9,56.1,52.7,50.2,99,98,97,0.00,40.00,6,0,7,1.03
2013-5-6,60.1,53.0,48.0,52.3,49.4,47.1,100,89,68,0.00,40.00,6,1,8,0.14
2013-5-7,66.4,55.7,45.3,57.9,51.6,44.6,99,87,65,0.00,40.00,5,0,5,0.00
2013-5-8,70.2,60.9,55.0,64.9,58.6,54.7,100,93,71,0.00,40.00,6,0,7,0.13
2013-5-9,75.9,63.0,52.9,64.9,58.4,52.5,100,87,58,0.00,40.00,7,0,7,0.13
2013-5-10,70.0,63.4,55.2,63.3,59.5,54.5,99,88,75,0.00,40.00,9,1,12,0.01
2013-5-11,71.6,63.0,52.2,66.0,59.5,49.8,99,89,68,0.00,40.00,7,0,8,0.42
2013-5-12,61.7,54.2,46.6,52.2,41.4,30.0,97,65,31,0.00,40.00,8,1,8,0.00
2013-5-13,64.2,51.2,36.9,43.7,38.0,30.9,98,65,29,0.00,40.00,7,0,8,0.00
2013-5-14,75.4,57.8,38.7,58.5,47.5,37.4,98,72,47,0.00,40.00,11,1,11,0.00
2013-5-15,83.8,71.6,60.6,63.5,58.3,53.2,87,65,36,0.00,40.00,11,1,11,0.00
2013-5-16,79.3,66.5,56.7,65.8,59.8,53.6,96,80,58,0.00,40.00,6,0,7,0.00
2013-5-17,76.6,67.4,59.7,69.1,63.6,59.0,100,89,65,0.00,40.00,6,0,6,0.14
2013-5-18,69.6,65.6,62.6,69.1,65.2,62.2,100,99,97,0.00,40.00,5,0,5,0.76
2013-5-19,71.8,66.5,61.5,70.9,65.9,61.0,100,98,93,0.00,40.00,9,0,9,0.20
2013-5-20,79.7,68.1,58.1,71.2,64.7,57.7,100,90,71,0.00,40.00,6,0,6,0.00
2013-5-21,84.0,69.8,62.4,72.7,66.4,62.1,100,90,64,0.00,40.00,11,1,12,0.14
2013-5-22,82.2,68.8,60.8,72.0,64.8,60.4,100,89,55,0.00,40.00,6,1,10,0.02
2013-5-23,77.9,68.4,63.0,68.0,62.5,55.8,100,83,57,0.00,40.00,9,1,10,0.03
2013-5-24,66.4,59.7,50.5,57.2,50.4,43.3,95,73,45,0.00,40.00,7,1,8,0.03
2013-5-25,72.3,57.8,43.0,53.8,47.4,38.8,99,72,35,0.00,40.00,5,0,5,0.00
2013-5-26,73.4,61.7,53.2,59.9,54.6,49.3,98,79,52,0.00,40.00,5,0,5,0.02
2013-5-27,80.6,66.6,53.4,63.5,57.9,52.5,99,76,46,0.00,40.00,8,1,9,0.00
2013-5-28,82.0,70.6,58.6,65.7,61.6,57.7,98,75,53,0.00,40.00,8,1,9,0.00
2013-5-29,83.1,71.7,59.7,69.6,64.1,57.9,97,78,55,0.00,40.00,7,0,8,0.00
2013-5-30,82.9,72.0,60.4,71.4,64.7,59.5,99,80,53,0.00,40.00,8,0,8,0.00
2013-5-31,83.7,72.6,61.3,68.7,64.9,60.8,99,79,52,0.00,40.00,9,1,11,0.00
2013-6-1,82.9,73.3,65.1,72.1,67.4,63.0,98,83,63,0.00,40.00,12,1,12,0.27
2013-6-2,71.1,68.7,64.8,70.5,68.2,64.4,100,99,95,0.00,40.00,5,0,5,1.89
2013-6-3,77.2,68.1,61.7,68.7,64.1,60.3,100,88,63,0.00,40.00,5,0,5,0.01
2013-6-4,78.8,67.8,57.0,68.4,62.0,56.5,100,83,56,0.00,40.00,5,0,5,0.00
2013-6-5,79.9,68.4,60.6,74.3,65.8,60.1,100,92,72,0.00,40.00,5,0,7,0.21
2013-6-6,79.7,69.9,61.9,72.5,66.8,61.5,100,91,71,0.00,40.00,6,0,8,0.00
2013-6-7,79.0,71.4,65.7,70.7,67.1,63.5,99,87,63,0.00,40.00,5,0,5,0.00
2013-6-8,78.3,69.7,64.6,69.3,65.8,63.9,100,89,67,0.00,40.00,6,0,7,0.01
2013-6-9,80.8,69.4,63.1,73.4,67.0,62.4,100,93,71,0.00,40.00,6,0,8,0.28
2013-6-10,79.5,70.3,65.7,70.2,67.0,62.8,100,90,58,0.00,40.00,9,1,10,0.21
2013-6-11,83.1,71.3,61.5,72.9,66.5,61.2,100,86,60,0.00,40.00,5,0,5,0.00
2013-6-12,88.0,76.7,65.1,78.1,71.6,64.4,100,85,65,0.00,40.00,5,0,7,0.00
2013-6-13,81.7,75.6,69.6,76.6,71.7,63.1,97,88,77,0.00,40.00,12,1,13,0.06
2013-6-14,79.0,69.6,59.4,67.3,61.6,56.3,99,78,48,0.00,40.00,5,0,6,0.00
2013-6-15,81.7,70.0,58.5,68.9,63.0,57.6,100,80,55,0.00,40.00,7,0,8,0.00
2013-6-16,82.6,72.8,63.7,74.3,67.3,62.8,98,84,64,0.00,40.00,9,1,11,0.08
2013-6-17,80.1,72.8,66.9,73.2,70.0,66.6,100,92,73,0.00,40.00,7,0,7,0.08
2013-6-18,73.2,69.6,64.4,71.2,67.8,63.9,100,94,82,0.00,40.00,5,0,6,0.60
2013-6-19,81.7,71.0,61.9,70.5,65.6,61.5,100,85,54,0.00,40.00,4,0,4,0.00
2013-6-20,82.6,72.2,63.0,73.8,67.7,62.6,100,87,65,0.00,40.00,4,0,5,0.00
2013-6-21,81.3,72.1,63.3,72.5,67.3,62.8,99,86,65,0.00,40.00,4,0,5,0.00
2013-6-22,83.1,73.3,65.3,73.9,67.6,64.6,99,84,58,0.00,40.00,4,0,5,0.00
2013-6-23,82.8,73.3,63.9,74.5,68.0,63.3,99,85,61,0.00,40.00,5,0,5,0.00
2013-6-24,84.6,74.2,65.1,73.4,68.9,64.4,99,85,59,0.00,40.00,7,0,7,0.00
2013-6-25,82.0,73.9,68.4,74.7,70.5,67.1,99,90,75,0.00,40.00,6,0,7,0.01
2013-6-26,82.9,73.4,68.4,75.6,71.7,67.8,100,95,76,0.00,40.00,6,0,7,0.15
2013-6-27,83.1,73.2,65.8,78.1,71.4,65.3,100,94,78,0.00,40.00,7,0,9,0.70
2013-6-28,82.8,73.9,67.1,77.4,71.1,64.9,100,92,66,0.00,40.00,5,0,5,0.00
2013-6-29,82.0,72.6,64.0,71.6,66.2,63.0,99,82,53,0.00,40.00,7,0,7,0.01
2013-6-30,82.6,72.4,63.3,71.4,66.1,61.5,99,82,51,0.00,40.00,6,0,7,0.00
2013-7-1,80.1,69.8,64.2,71.8,67.1,63.7,99,92,69,0.00,40.00,7,0,9,0.03
2013-7-2,79.0,71.1,66.4,72.9,68.9,66.0,100,93,72,0.00,40.00,6,0,7,0.03
2013-7-3,73.0,69.0,65.3,72.5,68.6,64.9,100,99,96,0.00,40.00,2,0,4,0.00
2013-7-4,75.9,69.0,64.9,73.8,68.5,64.8,100,98,89,0.00,40.00,5,0,7,0.00
2013-7-5,77.0,71.1,67.6,74.1,69.9,67.6,100,96,83,0.00,40.00,5,0,6,2.13
2013-7-6,73.9,69.0,66.4,73.4,68.7,66.0,100,99,93,0.00,40.00,4,0,5,1.42
2013-7-7,72.7,68.5,65.1,72.0,68.2,64.8,100,99,93,0.00,40.00,3,0,4,1.70
2013-7-8,82.2,72.2,64.8,75.9,70.0,64.4,100,93,71,0.00,40.00,3,0,4,0.00
2013-7-9,85.8,74.7,68.5,77.0,72.3,68.2,100,93,66,0.00,40.00,6,0,6,0.00
2013-7-10,82.0,73.7,69.3,79.2,72.6,68.9,100,96,83,0.00,40.00,6,0,6,0.20
2013-7-11,81.9,73.8,69.1,76.1,71.7,68.7,100,94,76,0.00,40.00,4,0,4,0.00
2013-7-12,79.2,72.2,66.6,70.0,67.7,64.6,100,86,66,0.00,40.00,5,0,6,0.00
2013-7-13,81.9,71.9,65.7,73.6,68.2,64.0,97,89,69,0.00,40.00,5,0,5,0.00
2013-7-14,82.8,73.6,65.7,75.9,70.3,65.3,100,90,75,0.00,40.00,4,0,5,0.00
2013-7-15,84.4,75.2,65.7,75.7,70.3,65.1,100,86,64,0.00,40.00,4,0,4,0.00
2013-7-16,86.4,76.9,67.8,77.7,72.1,67.5,100,86,65,0.00,40.00,4,0,4,0.00
2013-7-17,87.8,77.3,70.0,80.6,73.1,69.4,100,88,63,0.00,40.00,7,0,8,0.02
2013-7-18,86.5,77.0,68.9,79.2,73.6,68.5,100,90,71,0.00,40.00,0,0,0,0.00
2013-7-19,85.3,77.6,69.8,79.0,74.1,69.4,100,89,72,0.00,40.00,4,0,4,0.00
2013-7-20,83.1,75.2,69.6,79.5,73.5,69.3,100,95,80,0.00,40.00,7,0,8,0.09
2013-7-21,79.9,73.2,70.2,76.3,72.2,68.9,100,97,86,0.00,40.00,5,0,5,0.01
2013-7-22,79.3,72.8,70.3,74.8,71.7,70.0,100,97,83,0.00,40.00,8,0,10,0.00
2013-7-23,81.1,72.4,67.3,75.6,70.7,66.9,100,95,81,0.00,40.00,7,0,12,1.25
2013-7-24,82.0,74.3,68.5,76.3,71.7,66.7,100,92,67,0.00,40.00,4,0,5,0.00
2013-7-25,79.2,70.4,62.2,71.6,65.8,61.7,100,86,64,0.00,40.00,4,0,4,0.00
2013-7-26,82.8,71.1,60.1,73.9,66.7,59.5,100,87,65,0.00,40.00,6,0,6,0.00
2013-7-27,79.0,72.6,68.2,72.7,69.7,67.6,99,91,69,0.00,40.00,5,0,6,0.00
2013-7-28,77.7,70.5,63.0,68.7,65.2,59.5,99,84,59,0.00,40.00,4,0,5,0.00
2013-7-29,76.5,65.8,55.0,66.9,59.3,54.1,99,82,51,0.00,40.00,4,0,4,0.00
2013-7-30,73.8,66.5,59.0,69.6,64.1,58.5,100,92,78,0.00,40.00,1,0,1,0.01
2013-7-31,71.8,67.7,64.0,70.2,67.1,63.5,100,98,91,0.00,40.00,5,0,6,0.30
2013-8-1,80.6,72.2,67.1,72.3,69.4,66.2,100,92,69,0.00,40.00,4,0,4,0.00
2013-8-2,80.1,70.5,62.8,72.1,66.4,62.4,100,88,61,0.00,40.00,4,0,4,0.00
2013-8-3,81.3,73.0,65.7,75.2,70.1,64.8,100,91,72,0.00,40.00,4,0,4,0.00
2013-8-4,80.1,73.2,65.8,72.3,68.5,62.6,100,86,61,0.00,40.00,5,0,5,0.04
2013-8-5,79.7,69.9,60.4,71.8,65.0,59.5,99,86,51,0.00,40.00,4,0,6,0.00
2013-8-6,82.0,72.9,66.4,74.8,70.2,65.8,100,92,75,0.00,40.00,5,0,6,0.05
2013-8-7,79.2,74.0,71.1,76.6,73.0,70.5,100,97,89,0.00,40.00,5,0,6,0.59
2013-8-8,78.6,73.5,70.2,76.1,72.4,69.6,100,96,90,0.00,40.00,5,0,6,0.29
2013-8-9,84.4,75.8,69.6,77.9,73.3,68.9,100,92,78,0.00,40.00,9,1,9,0.00
2013-8-10,81.7,73.6,70.2,79.0,72.7,69.8,100,97,85,0.00,40.00,5,0,5,0.36
2013-8-11,83.7,73.5,70.3,77.7,72.5,70.2,100,97,79,0.00,40.00,7,0,9,0.54
2013-8-12,79.7,73.9,70.7,77.0,73.0,70.7,100,97,88,0.00,40.00,1,0,1,0.04
2013-8-13,80.4,74.4,69.6,75.6,72.0,67.3,100,92,77,0.00,40.00,11,1,11,0.04
2013-8-14,73.6,67.8,61.0,67.3,63.5,58.3,98,87,64,0.00,40.00,5,0,6,0.00
2013-8-15,76.8,67.3,58.5,70.2,62.5,55.8,97,85,70,0.00,40.00,3,0,4,0.00
2013-8-16,76.5,69.2,64.6,70.7,66.4,62.8,99,91,77,0.00,40.00,4,0,4,0.00
2013-8-17,73.0,67.7,64.0,67.5,65.0,62.8,99,92,76,0.00,40.00,2,0,4,0.42
2013-8-18,74.1,68.1,65.1,70.7,67.1,64.8,100,97,84,0.00,40.00,6,0,6,0.43
2013-8-19,76.3,70.5,66.9,73.4,69.2,66.7,100,96,81,0.00,40.00,3,0,3,0.00
2013-8-20,81.1,72.1,66.0,75.0,69.9,65.8,100,93,76,0.00,40.00,4,0,4,0.00
2013-8-21,78.8,70.6,66.0,74.3,69.6,65.7,100,97,84,0.00,40.00,6,0,8,0.21
2013-8-22,82.6,73.7,68.2,76.6,71.4,67.8,100,93,71,0.00,40.00,0,0,0,0.00
2013-8-23,81.7,72.1,67.8,75.9,70.9,67.3,100,96,75,0.00,40.00,4,0,5,0.00
2013-8-24,81.5,72.0,64.9,73.0,68.3,64.0,100,89,61,0.00,40.00,3,0,4,0.00
2013-8-25,79.3,68.9,60.8,69.8,64.7,60.3,100,88,61,0.00,40.00,4,0,4,0.00
2013-8-26,80.6,69.5,62.2,72.3,66.4,61.7,100,91,68,0.00,40.00,4,0,5,0.00
2013-8-27,81.9,71.5,63.9,76.1,68.9,63.5,100,92,72,0.00,40.00,4,0,4,0.00
2013-8-28,84.9,74.2,66.9,76.8,71.2,66.6,100,91,67,0.00,40.00,5,0,5,0.00
2013-8-29,85.3,76.4,70.3,78.3,73.4,69.8,99,91,72,0.00,40.00,5,0,5,0.00
2013-8-30,86.7,76.2,68.5,77.9,72.7,68.2,100,90,67,0.00,40.00,5,0,6,0.00
2013-8-31,86.2,76.7,68.4,78.3,73.6,68.0,99,91,70,0.00,40.00,7,0,8,0.02
2013-9-1,82.8,73.0,67.3,76.6,71.0,66.9,100,94,74,0.00,40.00,7,0,7,0.00
2013-9-2,80.1,73.0,66.7,76.8,71.2,66.4,100,94,83,0.00,40.00,5,0,7,0.00
2013-9-3,81.3,72.2,64.6,73.2,69.0,63.7,99,90,69,0.00,40.00,5,0,5,0.02
2013-9-4,78.6,68.7,61.2,70.2,64.5,60.6,99,88,60,0.00,40.00,4,0,4,0.00
2013-9-5,78.1,67.6,59.4,68.9,63.6,58.8,100,88,57,0.00,40.00,4,0,5,0.00
2013-9-6,80.2,69.6,62.4,69.4,65.3,61.7,100,88,59,0.00,40.00,4,0,5,0.00
2013-9-7,82.2,70.7,62.8,73.9,67.3,62.4,100,90,64,0.00,40.00,6,0,6,0.00
2013-9-8,81.5,72.0,65.8,74.1,69.2,65.3,100,92,67,0.00,40.00,4,0,4,0.00
2013-9-9,84.7,73.7,66.6,76.6,70.6,66.2,100,91,64,0.00,40.00,5,0,6,0.00
2013-9-10,85.5,74.6,67.1,75.2,70.4,66.7,100,88,60,0.00,40.00,6,0,6,0.00
2013-9-11,84.6,73.0,66.6,75.2,70.3,66.0,100,92,68,0.00,40.00,5,0,6,0.00
2013-9-12,85.1,72.6,66.4,75.7,69.9,65.5,99,92,66,0.00,40.00,8,0,10,0.25
2013-9-13,72.9,65.7,58.6,66.0,60.4,52.3,100,84,57,0.00,40.00,5,0,5,0.25
2013-9-14,70.2,59.4,50.4,59.4,53.8,49.3,98,83,55,0.00,40.00,5,0,5,0.00
2013-9-15,77.5,63.2,52.5,69.3,59.6,52.0,100,89,61,0.00,40.00,5,0,6,0.00
2013-9-16,76.3,65.9,58.8,68.0,62.9,58.3,100,91,69,0.00,40.00,5,0,5,0.00
2013-9-17,76.3,67.2,61.2,70.0,63.6,58.8,98,89,70,0.00,40.00,4,0,5,0.00
2013-9-18,68.4,65.1,61.5,66.2,63.7,60.6,98,95,85,0.00,40.00,2,0,4,0.00
2013-9-19,79.2,67.8,60.4,71.1,64.9,59.9,100,91,72,0.00,40.00,5,0,6,0.00
2013-9-20,81.1,69.5,61.5,70.0,65.5,61.0,100,88,61,0.00,40.00,8,0,8,0.00
2013-9-21,67.1,64.9,59.2,66.7,64.3,58.6,99,98,95,0.00,40.00,4,0,4,0.31
2013-9-22,70.3,60.0,51.6,61.0,56.5,51.3,100,89,61,0.00,40.00,5,0,5,0.00
2013-9-23,75.4,61.2,51.4,65.3,57.5,50.9,99,89,63,0.00,40.00,6,0,8,0.00
2013-9-24,75.6,65.5,56.8,69.4,62.8,56.3,100,92,71,0.00,40.00,4,0,4,0.00
2013-9-25,67.6,65.6,64.0,66.0,64.6,63.1,99,97,92,0.00,40.00,2,0,2,0.00
2013-9-26,74.7,65.7,59.0,66.2,62.7,58.1,99,91,66,0.00,40.00,4,0,5,0.00
2013-9-27,75.6,63.4,55.9,66.0,59.7,55.4,99,89,59,0.00,40.00,4,0,4,0.00
2013-9-28,73.9,63.6,57.7,65.3,60.6,56.8,99,91,68,0.00,40.00,5,0,5,0.00
2013-9-29,70.0,61.8,56.1,63.5,59.1,55.6,99,92,69,0.00,40.00,4,0,5,0.00
2013-9-30,73.2,61.8,54.7,63.5,58.3,54.1,99,90,62,0.00,40.00,7,0,7,0.01
2013-10-1,76.3,63.3,55.9,65.8,60.1,55.2,99,90,63,0.00,40.00,5,0,5,0.00
2013-10-2,74.8,65.7,58.3,70.5,63.7,57.4,99,94,81,0.00,40.00,4,0,4,0.01
2013-10-3,79.3,68.6,63.3,70.3,65.9,62.6,99,92,68,0.00,40.00,6,0,7,0.00
2013-10-4,79.7,68.0,61.9,70.2,64.9,61.3,99,90,66,0.00,40.00,5,0,6,0.00
2013-10-5,81.7,69.3,61.5,70.9,65.7,61.0,99,89,63,0.00,40.00,6,0,6,0.00
2013-10-6,81.5,69.9,59.2,68.2,64.9,56.5,99,85,58,0.00,40.00,10,1,11,0.00
2013-10-7,65.5,57.6,52.3,56.5,52.5,48.2,98,84,58,0.00,40.00,5,0,7,0.00
2013-10-8,69.4,56.7,46.8,57.4,50.6,45.7,98,82,54,0.00,40.00,5,0,8,0.00
2013-10-9,72.7,59.3,49.5,61.3,54.8,48.7,99,86,59,0.00,40.00,5,0,5,0.00
2013-10-10,72.3,60.0,53.4,59.5,55.2,52.7,100,86,55,0.00,40.00,5,0,5,0.00
2013-10-11,75.4,60.9,51.1,61.9,56.2,50.5,99,86,57,0.00,40.00,5,0,5,0.00
2013-10-12,77.0,61.9,51.3,63.1,57.0,50.5,99,86,51,0.00,40.00,5,0,6,0.00
2013-10-13,75.4,64.3,55.9,65.7,60.2,55.0,99,88,65,0.00,40.00,5,0,6,0.00
2013-10-14,75.7,65.6,58.1,66.0,61.7,57.2,98,88,67,0.00,40.00,5,0,5,0.00
2013-10-15,71.8,64.1,59.5,64.6,61.3,59.0,100,91,72,0.00,40.00,3,0,4,0.00
2013-10-16,65.5,62.5,58.8,61.7,59.7,57.2,98,91,81,0.00,40.00,6,0,6,0.00
2013-10-17,65.3,60.2,49.5,64.9,58.8,48.6,100,95,84,0.00,40.00,6,0,7,0.00
2013-10-18,62.1,52.8,47.1,53.1,49.0,46.0,99,88,58,0.00,40.00,4,0,4,0.00
2013-10-19,61.5,52.2,46.2,56.3,49.3,43.3,99,90,76,0.00,40.00,7,0,10,0.00
2013-10-20,60.3,46.8,36.7,46.9,41.2,36.0,100,83,46,0.00,40.00,5,0,5,0.00
2013-10-21,65.7,50.4,40.5,53.2,45.9,39.4,100,86,51,0.00,40.00,6,0,7,0.00
2013-10-22,58.3,52.1,45.3,54.1,49.8,44.4,98,92,81,0.00,40.00,4,0,5,0.00
2013-10-23,47.8,44.0,33.8,45.3,40.0,32.5,98,86,69,0.00,40.00,7,0,8,0.00
2013-10-24,49.1,41.8,32.5,42.8,37.5,29.7,98,85,68,0.00,40.00,6,0,7,0.00
2013-10-25,47.8,38.2,31.3,33.8,30.4,27.5,94,75,47,0.00,40.00,4,0,5,0.00
2013-10-26,54.1,41.6,29.7,39.9,33.0,28.6,99,75,43,0.00,40.00,12,1,13,0.00
2013-10-27,59.0,52.2,45.0,50.2,44.6,37.6,89,76,59,0.00,40.00,6,0,6,0.00
2013-10-28,64.2,56.1,50.5,56.7,53.0,48.9,99,90,73,0.00,40.00,9,0,10,0.00
2013-10-29,68.4,59.1,53.8,57.9,55.1,53.2,98,87,60,0.00,40.00,5,0,8,0.00
2013-10-30,76.3,64.8,57.4,61.9,58.2,55.4,93,80,56,0.00,40.00,8,1,9,0.00
2013-10-31,71.1,64.1,58.3,63.7,59.1,56.1,95,84,71,0.00,40.00,19,1,19,0.00
2013-11-1,69.8,61.8,49.5,64.4,55.2,44.4,99,81,43,0.00,40.00,14,1,18,0.02
2013-11-2,60.4,50.6,42.8,48.4,43.7,38.8,99,79,46,0.00,40.00,10,0,12,0.00
2013-11-3,55.2,45.9,38.1,43.7,39.7,36.5,98,81,52,0.00,40.00,7,0,7,0.00
2013-11-4,62.2,46.9,35.1,44.4,39.9,34.3,99,79,44,0.00,40.00,6,0,6,0.00
2013-11-5,65.8,51.9,43.3,46.8,42.1,37.8,92,72,42,0.00,40.00,5,0,6,0.00
2013-11-6,71.8,57.1,43.3,57.4,50.6,41.9,97,80,58,0.00,40.00,7,1,9,0.00
2013-11-7,64.4,50.9,41.4,58.1,43.5,32.2,98,77,49,0.00,40.00,13,1,13,0.06
2013-11-8,53.2,40.3,29.5,34.3,29.3,22.8,97,69,32,0.00,40.00,8,0,8,0.00
2013-11-9,54.1,42.3,29.5,37.8,33.7,28.4,100,74,48,0.00,40.00,13,1,16,0.00
2013-11-10,64.6,48.5,35.4,44.1,35.3,27.0,97,65,30,0.00,40.00,8,0,10,0.00
2013-11-11,63.7,45.4,30.7,39.2,32.2,27.5,97,65,27,0.00,40.00,7,0,7,0.00
2013-11-12,51.4,39.0,29.1,43.0,28.9,16.9,86,67,53,0.00,40.00,12,3,14,0.00
2013-11-13,42.4,30.3,21.2,24.4,21.2,18.0,92,71,42,0.00,40.00,6,0,7,0.00
2013-11-14,54.7,34.6,21.4,28.8,23.3,19.9,97,69,29,0.00,40.00,10,0,11,0.00
2013-11-15,49.8,39.4,28.0,43.3,34.1,23.2,98,83,48,0.00,40.00,4,0,4,0.00
2013-11-16,58.5,49.4,44.1,55.4,48.7,43.5,100,97,88,0.00,40.00,7,0,7,0.00
2013-11-17,64.0,59.6,54.7,64.0,58.0,53.4,100,95,83,0.00,40.00,7,0,8,0.00
2013-11-18,63.7,55.7,41.5,61.9,42.4,32.9,95,63,37,0.00,40.00,8,1,11,0.03
2013-11-19,50.5,43.1,35.1,33.8,29.8,25.5,82,60,39,0.00,40.00,10,1,10,0.00
2013-11-20,57.2,43.0,30.4,34.9,32.2,28.4,95,68,38,0.00,40.00,6,0,6,0.00
2013-11-21,58.5,47.4,35.6,49.8,40.7,32.7,94,79,60,0.00,40.00,5,0,5,0.00
2013-11-22,56.7,55.2,51.6,55.9,53.2,49.1,98,93,86,0.00,40.00,7,0,9,0.00
2013-11-23,51.6,42.4,29.5,49.1,35.1,19.0,92,76,55,0.00,40.00,11,2,15,0.00
2013-11-24,33.6,27.4,22.5,19.0,12.4,8.6,70,54,36,0.00,40.00,12,2,12,0.00
2013-11-25,36.0,29.8,22.6,31.6,20.4,12.0,97,70,47,0.00,40.00,4,0,4,0.00
2013-11-26,41.5,36.4,32.4,41.4,35.7,31.3,99,97,93,0.00,40.00,10,1,11,0.00
2013-11-27,35.1,31.0,27.7,33.4,26.6,20.8,96,84,72,0.00,40.00,15,2,21,0.00
2013-11-28,41.5,29.5,20.7,25.2,22.0,18.7,94,75,49,0.00,40.00,6,0,8,0.00
2013-11-29,46.9,32.6,23.2,34.0,26.4,21.9,99,81,45,0.00,40.00,6,0,6,0.00
2013-11-30,51.4,35.9,25.2,34.2,29.6,24.3,99,80,47,0.00,40.00,9,0,9,0.00
2013-12-1,53.6,41.6,28.2,39.2,33.0,26.1,93,73,51,0.00,40.00,10,0,10,0.00
2013-12-2,46.4,45.4,44.2,45.0,42.4,37.4,98,90,72,0.00,40.00,6,0,6,0.00
2013-12-3,53.1,47.9,45.0,50.7,47.1,44.6,99,97,90,0.00,40.00,2,0,3,0.00
2013-12-4,64.6,55.8,48.4,59.7,53.8,47.8,99,93,84,0.00,40.00,6,0,7,0.00
2013-12-5,69.3,65.0,51.1,65.8,62.4,49.1,97,91,86,0.00,40.00,11,2,12,0.00
2013-12-6,50.7,41.6,36.1,49.1,40.5,35.1,98,96,94,0.00,40.00,11,2,12,0.00
2013-12-7,36.7,34.6,33.6,35.1,32.7,31.5,95,93,91,0.00,40.00,9,2,11,0.00
2013-12-8,42.6,38.3,34.0,42.4,37.6,31.5,99,97,90,0.00,40.00,6,0,7,0.00
2013-12-9,50.7,44.1,37.2,48.4,43.0,34.9,100,96,84,0.00,40.00,7,1,12,0.00
2013-12-10,38.5,33.1,24.8,36.7,29.7,23.4,100,88,64,0.00,40.00,10,1,10,0.00
2013-12-11,45.9,31.4,21.9,30.7,25.1,21.0,100,80,44,0.00,40.00,9,1,10,0.00
2013-12-12,38.5,29.7,22.8,26.6,20.6,14.7,88,70,40,0.00,40.00,8,1,11,0.00
2013-12-13,46.2,31.5,19.6,31.3,23.2,18.0,96,74,38,0.00,40.00,5,0,6,0.00
2013-12-14,45.0,39.8,35.8,44.8,38.3,30.2,99,94,78,0.00,40.00,6,1,7,0.00
2013-12-15,43.0,34.6,27.9,40.6,31.3,26.2,94,88,80,0.00,40.00,12,1,12,0.00
2013-12-16,47.5,36.0,28.0,36.7,31.7,26.2,94,85,65,0.00,40.00,14,1,14,0.00
2013-12-17,54.3,43.7,34.5,39.6,33.6,25.0,89,69,50,0.00,40.00,18,3,23,0.00
2013-12-18,46.0,34.4,24.6,27.7,24.8,22.5,93,69,43,0.00,40.00,8,1,9,0.00
2013-12-19,56.7,39.9,26.2,31.3,26.5,22.5,90,62,32,0.00,40.00,9,1,10,0.00
2013-12-20,54.9,47.1,36.1,49.1,36.9,27.9,87,68,52,0.00,40.00,10,1,12,0.00
2013-12-21,71.8,59.4,51.6,64.8,56.2,48.7,98,89,76,0.00,40.00,18,1,19,0.00
2013-12-22,65.7,58.0,55.0,64.6,56.7,53.6,99,95,90,0.00,40.00,13,2,15,0.00
2013-12-23,55.0,41.6,33.3,54.0,37.9,26.8,98,87,76,0.00,40.00,11,2,14,0.00
2013-12-24,33.3,29.9,22.5,27.5,21.3,15.1,82,71,53,0.00,40.00,9,1,9,0.00
2013-12-25,42.3,28.0,18.0,26.1,21.1,16.0,100,77,50,0.00,40.00,10,1,12,0.00
2013-12-26,45.9,35.0,27.0,32.2,26.8,23.5,90,73,47,0.00,40.00,6,1,7,0.00
2013-12-27,50.0,33.8,24.1,31.6,25.7,22.8,98,76,36,0.00,40.00,5,0,7,0.00
2013-12-28,43.2,33.7,24.1,38.1,30.8,22.8,98,90,63,0.00,40.00,5,0,5,0.00
2013-12-29,47.8,42.6,38.7,45.9,41.5,37.9,99,96,88,0.00,40.00,8,1,8,0.00
2013-12-30,41.5,36.2,33.1,40.3,32.8,29.7,96,88,78,0.00,40.00,8,1,8,0.00
2013-12-31,41.5,31.0,25.2,30.7,26.6,24.4,98,85,55,0.00,40.00,7,0,7,0.00
2014-1-1,46.0,31.3,22.8,31.8,26.3,21.6,100,83,50,0.00,40.00,12,1,13,0.00
2014-1-2,40.5,32.8,20.1,39.0,30.1,14.0,100,90,75,0.00,40.00,16,2,16,0.00